Hourly Weather Barovo

Today, 6 May, Thursday

Time Temperature Precipitation Wind Pressure Humidity
00:00 +8°C° 0.7 mm 2 mps 737 mmHg 96%
01:00 +8°C° 0.7 mm 2 mps 737 mmHg 96%
02:00 +7°C° 0 mm 3 mps 737 mmHg 96%
03:00 +7°C° 0.4 mm 3 mps 737 mmHg 92%
04:00 +6°C° 0.4 mm 4 mps 737 mmHg 88%
05:00 +6°C° 0.4 mm 5 mps 738 mmHg 85%
06:00 +5°C° 0.1 mm 6 mps 738 mmHg 85%
07:00 +5°C° 0.1 mm 6 mps 739 mmHg 85%
08:00 +5°C° 0 mm 7 mps 739 mmHg 86%
09:00 +6°C° 0.2 mm 7 mps 739 mmHg 82%
10:00 +6°C° 0.2 mm 7 mps 740 mmHg 78%
11:00 +6°C° 0.2 mm 8 mps 740 mmHg 74%
12:00 +7°C° 0.1 mm 8 mps 740 mmHg 67%
13:00 +9°C° 0.1 mm 8 mps 741 mmHg 59%
14:00 +9°C° 0.1 mm 8 mps 741 mmHg 52%
15:00 +9°C° 0.2 mm 8 mps 742 mmHg 54%
16:00 +9°C° 0.2 mm 8 mps 742 mmHg 57%
17:00 +8°C° 0.2 mm 7 mps 742 mmHg 59%
18:00 +7°C° 0 mm 6 mps 742 mmHg 63%
19:00 +6°C° 0 mm 4 mps 742 mmHg 66%
20:00 +5°C° 0 mm 3 mps 743 mmHg 70%
21:00 +4°C° 0 mm 3 mps 743 mmHg 73%
22:00 +4°C° 0 mm 3 mps 743 mmHg 75%
23:00 +4°C° 0 mm 3 mps 743 mmHg 78%

Tomorrow, 7 May, Friday

Time Temperature Precipitation Wind Pressure Humidity
00:00 +4°C° 0 mm 3 mps 743 mmHg 80%
01:00 +4°C° 0 mm 3 mps 743 mmHg 82%
02:00 +4°C° 0 mm 3 mps 743 mmHg 83%
03:00 +4°C° 0 mm 3 mps 743 mmHg 86%
04:00 +3°C° 0 mm 3 mps 743 mmHg 89%
05:00 +3°C° 0 mm 3 mps 743 mmHg 92%
06:00 +4°C° 0 mm 3 mps 743 mmHg 87%
07:00 +5°C° 0 mm 3 mps 743 mmHg 83%
08:00 +7°C° 0 mm 4 mps 743 mmHg 78%
09:00 +7°C° 0.3 mm 3 mps 743 mmHg 81%
10:00 +7°C° 0.3 mm 3 mps 742 mmHg 84%
11:00 +7°C° 0.3 mm 3 mps 742 mmHg 87%
12:00 +7°C° 0.6 mm 3 mps 742 mmHg 89%
13:00 +7°C° 0.6 mm 3 mps 741 mmHg 91%
14:00 +7°C° 0.6 mm 3 mps 741 mmHg 93%
15:00 +8°C° 1.1 mm 3 mps 740 mmHg 94%
16:00 +8°C° 1.1 mm 3 mps 740 mmHg 95%
17:00 +8°C° 1.1 mm 3 mps 739 mmHg 96%
18:00 +7°C° 0.2 mm 2 mps 739 mmHg 96%
19:00 +7°C° 0.2 mm 2 mps 739 mmHg 97%
20:00 +8°C° 0.2 mm 1 mps 739 mmHg 97%
21:00 +7°C° 0.1 mm 2 mps 739 mmHg 97%
22:00 +7°C° 0.1 mm 2 mps 739 mmHg 97%
23:00 +6°C° 0.1 mm 2 mps 739 mmHg 97%

Day after tomorrow, 8 May, Saturday

Time Temperature Precipitation Wind Pressure Humidity
00:00 +5°C° 0.6 mm 3 mps 740 mmHg 97%
01:00 +4°C° 0.6 mm 4 mps 740 mmHg 96%
02:00 +4°C° 0.6 mm 4 mps 740 mmHg 96%
03:00 +2°C° 1.1 mm 5 mps 741 mmHg 96%
04:00 +2°C° 1.1 mm 5 mps 741 mmHg 96%
05:00 +2°C° 1.1 mm 5 mps 742 mmHg 96%
06:00 +2°C° 0.1 mm 6 mps 743 mmHg 93%
07:00 +2°C° 0.1 mm 6 mps 744 mmHg 90%
08:00 +2°C° 0.1 mm 6 mps 744 mmHg 86%
09:00 +3°C° 0 mm 7 mps 745 mmHg 78%
10:00 +4°C° 0 mm 7 mps 745 mmHg 69%
11:00 +5°C° 0 mm 7 mps 746 mmHg 61%
12:00 +5°C° 0.1 mm 7 mps 746 mmHg 65%
13:00 +6°C° 0.1 mm 7 mps 747 mmHg 68%
14:00 +7°C° 0.1 mm 6 mps 747 mmHg 72%
15:00 +7°C° 0.3 mm 6 mps 747 mmHg 74%
16:00 +7°C° 0.3 mm 6 mps 748 mmHg 75%
17:00 +7°C° 0.3 mm 6 mps 748 mmHg 76%
18:00 +6°C° 0.2 mm 5 mps 748 mmHg 80%
19:00 +5°C° 0.2 mm 5 mps 749 mmHg 84%
20:00 +4°C° 0.2 mm 4 mps 749 mmHg 87%
21:00 +4°C° 0 mm 4 mps 749 mmHg 89%
22:00 +3°C° 0 mm 4 mps 750 mmHg 92%
23:00 +2°C° 0 mm 3 mps 751 mmHg 94%

9 May, Sunday

Time Temperature Precipitation Wind Pressure Humidity
00:00 +2°C° 0 mm 3 mps 751 mmHg 94%
01:00 +1°C° 0 mm 3 mps 751 mmHg 95%
02:00 +1°C° 0 mm 2 mps 752 mmHg 95%
03:00 +1°C° 0 mm 2 mps 752 mmHg 95%
04:00 +1°C° 0 mm 2 mps 753 mmHg 95%
05:00 +1°C° 0 mm 2 mps 753 mmHg 95%
06:00 +3°C° 0 mm 2 mps 754 mmHg 90%
07:00 +5°C° 0 mm 2 mps 754 mmHg 84%
08:00 +6°C° 0 mm 2 mps 754 mmHg 79%
09:00 +8°C° 0 mm 2 mps 755 mmHg 70%
10:00 +9°C° 0 mm 3 mps 755 mmHg 61%
11:00 +11°C° 0 mm 3 mps 755 mmHg 53%
12:00 +12°C° 0 mm 3 mps 755 mmHg 50%
13:00 +12°C° 0 mm 3 mps 754 mmHg 47%
14:00 +13°C° 0 mm 4 mps 754 mmHg 45%
15:00 +13°C° 0 mm 4 mps 754 mmHg 47%
16:00 +13°C° 0 mm 3 mps 754 mmHg 49%
17:00 +13°C° 0 mm 3 mps 754 mmHg 52%
18:00 +12°C° 0 mm 3 mps 754 mmHg 60%
19:00 +10°C° 0 mm 3 mps 754 mmHg 67%
20:00 +8°C° 0 mm 3 mps 754 mmHg 75%
21:00 +8°C° 0 mm 3 mps 755 mmHg 75%
22:00 +7°C° 0 mm 3 mps 755 mmHg 75%
23:00 +7°C° 0 mm 3 mps 755 mmHg 75%

10 May, Monday

Time Temperature Precipitation Wind Pressure Humidity
00:00 +7°C° 0 mm 3 mps 755 mmHg 76%
01:00 +5°C° 0 mm 3 mps 755 mmHg 77%
02:00 +5°C° 0 mm 3 mps 756 mmHg 79%
03:00 +5°C° 0 mm 3 mps 756 mmHg 80%
04:00 +5°C° 0 mm 3 mps 756 mmHg 81%
05:00 +5°C° 0 mm 3 mps 756 mmHg 82%
06:00 +7°C° 0 mm 4 mps 756 mmHg 77%
07:00 +10°C° 0 mm 4 mps 756 mmHg 71%
08:00 +10°C° 0 mm 5 mps 756 mmHg 66%
09:00 +13°C° 0 mm 5 mps 756 mmHg 62%
10:00 +15°C° 0 mm 6 mps 756 mmHg 57%
11:00 +16°C° 0 mm 6 mps 756 mmHg 53%
12:00 +17°C° 0 mm 6 mps 756 mmHg 52%
13:00 +17°C° 0 mm 7 mps 756 mmHg 51%
14:00 +18°C° 0 mm 7 mps 756 mmHg 49%
15:00 +19°C° 0 mm 6 mps 756 mmHg 52%
16:00 +19°C° 0 mm 6 mps 755 mmHg 55%
17:00 +19°C° 0 mm 6 mps 755 mmHg 58%
18:00 +16°C° 0 mm 5 mps 755 mmHg 63%
19:00 +14°C° 0 mm 5 mps 755 mmHg 68%
20:00 +13°C° 0 mm 4 mps 755 mmHg 73%
21:00 +12°C° 0 mm 4 mps 755 mmHg 74%
22:00 +11°C° 0 mm 4 mps 755 mmHg 74%
23:00 +11°C° 0 mm 4 mps 756 mmHg 75%

11 May, Tuesday

Time Temperature Precipitation Wind Pressure Humidity
00:00 +9°C° 0 mm 5 mps 756 mmHg 76%
01:00 +9°C° 0 mm 5 mps 756 mmHg 78%
02:00 +8°C° 0 mm 5 mps 756 mmHg 79%
03:00 +8°C° 0 mm 5 mps 756 mmHg 80%
04:00 +8°C° 0 mm 5 mps 756 mmHg 80%
05:00 +8°C° 0 mm 5 mps 756 mmHg 80%
06:00 +9°C° 0 mm 5 mps 756 mmHg 75%
07:00 +10°C° 0 mm 6 mps 756 mmHg 70%
08:00 +13°C° 0 mm 6 mps 756 mmHg 65%
09:00 +14°C° 0 mm 6 mps 756 mmHg 60%
10:00 +15°C° 0 mm 7 mps 756 mmHg 54%
11:00 +16°C° 0 mm 7 mps 756 mmHg 48%
12:00 +17°C° 0 mm 7 mps 755 mmHg 47%
13:00 +18°C° 0 mm 7 mps 755 mmHg 46%
14:00 +18°C° 0 mm 7 mps 755 mmHg 45%
15:00 +19°C° 0 mm 6 mps 755 mmHg 48%
16:00 +19°C° 0 mm 6 mps 755 mmHg 51%
17:00 +19°C° 0 mm 5 mps 754 mmHg 54%
18:00 +16°C° 0 mm 5 mps 754 mmHg 61%
19:00 +15°C° 0 mm 4 mps 754 mmHg 67%
20:00 +13°C° 0 mm 4 mps 754 mmHg 74%
21:00 +13°C° 0 mm 4 mps 754 mmHg 76%
22:00 +12°C° 0 mm 4 mps 754 mmHg 79%
23:00 +12°C° 0 mm 4 mps 754 mmHg 81%
Show more